Previsão horária em 1-e Itkulovo

Hoje, 17 Abril, Sábado

Tempo Temperatura Precipitação Vento Pressão Humidade
00:00 +7°C° 0 mm 4 m/s 720 mmHg 88%
01:00 +6°C° 0 mm 5 m/s 720 mmHg 93%
02:00 +6°C° 0 mm 4 m/s 720 mmHg 93%
03:00 +6°C° 0 mm 4 m/s 720 mmHg 93%
04:00 +6°C° 0 mm 4 m/s 720 mmHg 93%
05:00 +6°C° 0 mm 4 m/s 720 mmHg 93%
06:00 +6°C° 0 mm 4 m/s 721 mmHg 92%
07:00 +7°C° 0 mm 3 m/s 721 mmHg 92%
08:00 +8°C° 0 mm 3 m/s 721 mmHg 88%
09:00 +9°C° 0 mm 3 m/s 721 mmHg 85%
10:00 +10°C° 0 mm 3 m/s 721 mmHg 81%
11:00 +11°C° 0 mm 3 m/s 720 mmHg 75%
12:00 +12°C° 0 mm 3 m/s 720 mmHg 68%
13:00 +14°C° 0 mm 3 m/s 720 mmHg 61%
14:00 +14°C° 0 mm 3 m/s 720 mmHg 58%
15:00 +14°C° 0 mm 3 m/s 720 mmHg 55%
16:00 +16°C° 0 mm 2 m/s 719 mmHg 53%
17:00 +15°C° 0 mm 2 m/s 719 mmHg 58%
18:00 +13°C° 0 mm 1 m/s 719 mmHg 64%
19:00 +12°C° 0 mm 1 m/s 718 mmHg 69%
20:00 +12°C° 0 mm 1 m/s 718 mmHg 72%
21:00 +11°C° 0 mm 1 m/s 718 mmHg 74%
22:00 +10°C° 0 mm 1 m/s 718 mmHg 76%
23:00 +9°C° 0 mm 0 m/s 718 mmHg 77%

Amanhã, 18 Abril, Domingo

Tempo Temperatura Precipitação Vento Pressão Humidade
00:00 +8°C° 0 mm 0 m/s 717 mmHg 78%
01:00 +8°C° 0 mm 0 m/s 717 mmHg 79%
02:00 +9°C° 0 mm 1 m/s 717 mmHg 79%
03:00 +8°C° 0 mm 1 m/s 717 mmHg 79%
04:00 +8°C° 0 mm 1 m/s 717 mmHg 80%
05:00 +8°C° 0 mm 1 m/s 717 mmHg 78%
06:00 +9°C° 0 mm 1 m/s 717 mmHg 76%
07:00 +10°C° 0 mm 1 m/s 717 mmHg 74%
08:00 +11°C° 0 mm 1 m/s 716 mmHg 69%
09:00 +13°C° 0 mm 1 m/s 716 mmHg 63%
10:00 +14°C° 0 mm 1 m/s 716 mmHg 58%
11:00 +15°C° 0 mm 2 m/s 716 mmHg 53%
12:00 +16°C° 0 mm 2 m/s 716 mmHg 48%
13:00 +17°C° 0 mm 2 m/s 716 mmHg 43%
14:00 +16°C° 0 mm 3 m/s 716 mmHg 46%
15:00 +14°C° 0 mm 4 m/s 716 mmHg 49%
16:00 +14°C° 0 mm 5 m/s 716 mmHg 53%
17:00 +12°C° 0 mm 5 m/s 717 mmHg 54%
18:00 +10°C° 0 mm 5 m/s 717 mmHg 56%
19:00 +9°C° 0 mm 5 m/s 717 mmHg 58%
20:00 +7°C° 0 mm 6 m/s 718 mmHg 65%
21:00 +4°C° 0 mm 8 m/s 719 mmHg 73%
22:00 +1°C° 0 mm 9 m/s 719 mmHg 80%
23:00 0°C° 0 mm 8 m/s 720 mmHg 78%

Depois de amanhã, 19 Abril, Segunda-feira

Tempo Temperatura Precipitação Vento Pressão Humidade
00:00 -1°C° 0 mm 8 m/s 720 mmHg 76%
01:00 -2°C° 0 mm 8 m/s 721 mmHg 74%
02:00 -2°C° 0 mm 8 m/s 721 mmHg 73%
03:00 -4°C° 0 mm 8 m/s 721 mmHg 72%
04:00 -4°C° 0 mm 8 m/s 722 mmHg 71%
05:00 -5°C° 0 mm 8 m/s 722 mmHg 68%
06:00 -5°C° 0 mm 8 m/s 723 mmHg 64%
07:00 -6°C° 0 mm 8 m/s 723 mmHg 61%
08:00 -5°C° 0 mm 8 m/s 723 mmHg 55%
09:00 -5°C° 0 mm 8 m/s 724 mmHg 50%
10:00 -4°C° 0 mm 8 m/s 724 mmHg 44%
11:00 -2°C° 0 mm 8 m/s 724 mmHg 42%
12:00 -2°C° 0 mm 8 m/s 724 mmHg 39%
13:00 -1°C° 0 mm 7 m/s 724 mmHg 37%
14:00 -1°C° 0 mm 7 m/s 724 mmHg 36%
15:00 -1°C° 0 mm 7 m/s 724 mmHg 34%
16:00 -1°C° 0 mm 7 m/s 724 mmHg 33%
17:00 -2°C° 0 mm 7 m/s 725 mmHg 35%
18:00 -2°C° 0 mm 7 m/s 725 mmHg 37%
19:00 -3°C° 0 mm 6 m/s 725 mmHg 40%
20:00 -4°C° 0 mm 6 m/s 725 mmHg 42%
21:00 -5°C° 0 mm 6 m/s 726 mmHg 44%
22:00 -5°C° 0 mm 6 m/s 726 mmHg 45%
23:00 -5°C° 0 mm 6 m/s 726 mmHg 46%

20 Abril, Terça-feira

Tempo Temperatura Precipitação Vento Pressão Humidade
00:00 -6°C° 0 mm 5 m/s 727 mmHg 47%
01:00 -6°C° 0 mm 5 m/s 727 mmHg 48%
02:00 -6°C° 0 mm 5 m/s 727 mmHg 50%
03:00 -7°C° 0 mm 5 m/s 727 mmHg 51%
04:00 -7°C° 0 mm 5 m/s 728 mmHg 52%
05:00 -6°C° 0 mm 5 m/s 728 mmHg 49%
06:00 -6°C° 0 mm 5 m/s 728 mmHg 46%
07:00 -6°C° 0 mm 6 m/s 728 mmHg 43%
08:00 -5°C° 0 mm 6 m/s 729 mmHg 39%
09:00 -2°C° 0 mm 5 m/s 729 mmHg 35%
10:00 -1°C° 0 mm 5 m/s 729 mmHg 31%
11:00 0°C° 0 mm 5 m/s 729 mmHg 30%
12:00 +1°C° 0 mm 5 m/s 729 mmHg 29%
13:00 +3°C° 0 mm 4 m/s 729 mmHg 29%
14:00 +3°C° 0 mm 4 m/s 729 mmHg 29%
15:00 +3°C° 0 mm 3 m/s 729 mmHg 30%
16:00 +3°C° 0 mm 3 m/s 728 mmHg 31%
17:00 +3°C° 0 mm 2 m/s 728 mmHg 35%
18:00 +2°C° 0 mm 2 m/s 728 mmHg 40%
19:00 +2°C° 0 mm 1 m/s 728 mmHg 45%
20:00 +2°C° 0 mm 1 m/s 728 mmHg 46%
21:00 +1°C° 0 mm 1 m/s 728 mmHg 48%
22:00 0°C° 0 mm 1 m/s 728 mmHg 49%
23:00 0°C° 0 mm 1 m/s 729 mmHg 51%

21 Abril, Quarta-feira

Tempo Temperatura Precipitação Vento Pressão Humidade
00:00 0°C° 0 mm 1 m/s 729 mmHg 53%
01:00 0°C° 0 mm 1 m/s 729 mmHg 55%
02:00 0°C° 0 mm 1 m/s 729 mmHg 55%
03:00 -1°C° 0 mm 0 m/s 729 mmHg 55%
04:00 -1°C° 0 mm 0 m/s 729 mmHg 54%
05:00 -1°C° 0 mm 0 m/s 729 mmHg 50%
06:00 0°C° 0 mm 0 m/s 730 mmHg 46%
07:00 +1°C° 0 mm 0 m/s 730 mmHg 43%
08:00 +4°C° 0 mm 1 m/s 730 mmHg 39%
09:00 +5°C° 0 mm 1 m/s 730 mmHg 35%
10:00 +6°C° 0 mm 2 m/s 730 mmHg 31%
11:00 +7°C° 0 mm 2 m/s 730 mmHg 30%
12:00 +8°C° 0 mm 2 m/s 729 mmHg 30%
13:00 +9°C° 0 mm 2 m/s 729 mmHg 29%
14:00 +9°C° 0 mm 2 m/s 729 mmHg 30%
15:00 +9°C° 0 mm 2 m/s 729 mmHg 30%
16:00 +10°C° 0 mm 2 m/s 729 mmHg 31%
17:00 +8°C° 0 mm 2 m/s 729 mmHg 37%
18:00 +7°C° 0 mm 2 m/s 729 mmHg 43%
19:00 +6°C° 0 mm 2 m/s 729 mmHg 49%
20:00 +5°C° 0 mm 2 m/s 729 mmHg 51%
21:00 +5°C° 0 mm 1 m/s 729 mmHg 53%
22:00 +4°C° 0 mm 1 m/s 729 mmHg 55%
23:00 +4°C° 0 mm 1 m/s 729 mmHg 55%

22 Abril, Quinta-feira

Tempo Temperatura Precipitação Vento Pressão Humidade
00:00 +3°C° 0 mm 1 m/s 729 mmHg 56%
01:00 +3°C° 0 mm 1 m/s 729 mmHg 56%
02:00 +3°C° 0 mm 1 m/s 729 mmHg 56%
03:00 +3°C° 0 mm 1 m/s 729 mmHg 56%
04:00 +2°C° 0 mm 1 m/s 730 mmHg 56%
05:00 +3°C° 0 mm 1 m/s 730 mmHg 53%
06:00 +4°C° 0 mm 0 m/s 730 mmHg 50%
07:00 +5°C° 0 mm 0 m/s 730 mmHg 47%
08:00 +7°C° 0 mm 1 m/s 730 mmHg 43%
09:00 +8°C° 0 mm 2 m/s 730 mmHg 39%
10:00 +9°C° 0 mm 2 m/s 730 mmHg 35%
11:00 +10°C° 0 mm 2 m/s 730 mmHg 34%
12:00 +12°C° 0 mm 2 m/s 730 mmHg 32%
13:00 +12°C° 0 mm 3 m/s 730 mmHg 31%
14:00 +12°C° 0 mm 3 m/s 730 mmHg 31%
15:00 +12°C° 0 mm 3 m/s 729 mmHg 31%
16:00 +12°C° 0 mm 3 m/s 729 mmHg 31%
17:00 +12°C° 0 mm 2 m/s 729 mmHg 37%
18:00 +10°C° 0 mm 2 m/s 729 mmHg 42%
19:00 +9°C° 0 mm 2 m/s 729 mmHg 48%
20:00 +8°C° 0 mm 2 m/s 729 mmHg 50%
21:00 +8°C° 0 mm 1 m/s 729 mmHg 52%
22:00 +7°C° 0 mm 1 m/s 729 mmHg 54%
23:00 +7°C° 0 mm 1 m/s 729 mmHg 55%
Mostrar mais